SCELSCVM

Guest
Details From SCEL - Arturo Merino Benitez Intl
To SCVM - Vina Del Mar
Flight Number -
Tags Generated
Created
Modified
Stats Distance 43 nm / 80 km
Max Altitude 0 ft / 0 m
Waypoints 2
Social Downloads 1
Likes 0
Share VATSIM

Download

Looking for another format? Having issues loading an existing format? Contact us
Advertisement - Login to hide

Notes

Generated

Route

SCEL SCVM

ID Type Via Altitude Latitude Longitude Leg Dist Tot Dist Heading (true) Name
O SCEL APT - 0 ft / 0 m -33.37608˚ -70.78671˚ - 0 nm - -
O SCVM APT - 0 ft / 0 m -32.95445˚ -71.48601˚ 43 nm 43 nm 306° / 306° -

Altitude Profile

Advertisement - Login to hide

SCEL

Details ICAO SCEL (SCL)
Name Arturo Merino Benitez Intl
Region Chile
Timezone America/Santiago (UTC-4.0)
Stats Elevation 1,550 ft / 472 m (AMSL)
Location -33.389775° -70.794366°
Runways 2
Magnetic Variation 1.735° E

METAR

SCEL 211500Z VRB02KT 8000 NSC 14/00 Q1020 NOSIG

Decode

TAF

TAF SCEL 211006Z 2112/2212 VRB02KT CAVOK TX23/2119Z TN03/2211Z TEMPO 2112/2114 7000 NSC BECMG 2116/2118 19010KT BECMG 2201/2203 16004KT BECMG 2204/2206 VRB02KT TEMPO 2207/2212 17004KT 7000 NSC

Decode

Departure Runways

ID Width Length Bearing (true) Bearing (mag) Surface Threshold Offset Overrun Length
17L 180 ft / 55 m 10,523 ft / 3,207 m 177.43° 175.70° Asphalt 0 ft / 0 m 0 ft / 0 m
17R 148 ft / 45 m 12,504 ft / 3,811 m 177.44° 175.71° Asphalt 0 ft / 0 m 0 ft / 0 m
35L 148 ft / 45 m 12,504 ft / 3,811 m 357.44° 355.71° Asphalt 0 ft / 0 m 0 ft / 0 m
35R 180 ft / 55 m 10,523 ft / 3,207 m 357.43° 355.70° Asphalt 1,800 ft / 549 m 0 ft / 0 m

SCVM

Details ICAO SCVM
Name Vina Del Mar
Region Chile
Timezone America/Santiago (UTC-4.0)
Stats Elevation 461 ft / 141 m (AMSL)
Location -32.949611° -71.478583°
Runways 1
Magnetic Variation 2.119° E

METAR

SCVM 211400Z 00000KT CAVOK 11/10 Q1019

Decode

TAF

Not found

Destination Runways

ID Width Length Bearing (true) Bearing (mag) Surface Threshold Offset Overrun Length
05 98 ft / 30 m 5,759 ft / 1,755 m 52.21° 50.09° Asphalt 0 ft / 0 m 85 ft / 26 m
23 98 ft / 30 m 5,759 ft / 1,755 m 232.20° 230.08° Asphalt 0 ft / 0 m 85 ft / 26 m

Approach Navaids

Runway Type Ident Frequency Range Bearing (true) Bearing (mag) Slope Elevation
05 Localiser IVDM 110.70 MHz 18 nm / 33 km 52.20° 50.08° - 456 ft / 139 m (AMSL)
05 Glidescope IVDM 110.70 MHz 10 nm / 19 km 52.20° 50.08° 3.20° 456 ft / 139 m (AMSL)
05 DME IVDM 110.70 MHz 18 nm / 33 km - - - 423 ft / 129 m (AMSL)

Popular Alternatives